(674) Rachele
ephemeris date magn radius delta ra dec elong phase
Today9 May 202512.32.740 AU2.189 AU11h15m+20°16'112.6°19.9°
Opposition29 May 202612.13.376 AU2.364 AU16h24m-25°09'176.4°1.1°
(674) Rachele - 2025-05-09
astro.vanbuitenen.nl


 
-1 year
-1 month
-1 day
Now
+1 day
+1 month
+1 year

The interactive orbit chart above shows the body's path through the solar system and its position at the given date. Green and blue lines are shown perpendicular to the ecliptic plane: Green if the path is above the ecliptic plane, blue if it is below. (Left-click and drag to rotate the view; Right-click and drag to move the view; Use scroll wheel to zoom in our out.)

The orbital elements of Rachele are:

            e (Eccentricity)                : 0.1931154
            a (Semimajor axis)              : 2.9236200
            i (Inclination)                 : 13.51375
            Ω (Longitude of ascending node) : 58.06829
            ω (Argument of perihelion)      : 41.09832
            M (Mean anomaly)                : 59.78043
            Epoch                           : 2025 May 05

            L (Longitude of perihelion)     : 98.37134
            B (Latitude of perihelion)      : 8.83616
            P (Orbital period in years)     : 5.00            
        

The light curve chart below shows the estimated development of the minor planet's magnitude.


The all-sky chart below shows the path of the minor planet over the same period as the light curve. The current position is marked yellow.





The following chart shows the path of the minor planet in the next few days. The field of view is optimized for (~10x50) binoculars and finderscopes. A more printer-friendly version of the same chart can be found below.




Ephemerides:
Date       Time       RA (2000)    DEC (2000)    delta   radius  elong  phase   PA    magn
2025-05-09 00:00 UT   11 15 05.5   +20 16 35     2.189    2.740  112.6   19.9   120   12.3 
2025-05-09 15:44 UT   11 15 12.5   +20 10 57     2.198    2.741  112.1   20.0   120   12.4 
2025-05-10 00:00 UT   11 15 16.4   +20 07 59     2.202    2.742  111.8   20.0   119   12.4 
2025-05-11 00:00 UT   11 15 28.7   +19 59 18     2.216    2.744  111.0   20.1   119   12.4 
2025-05-12 00:00 UT   11 15 42.2   +19 50 32     2.229    2.746  110.1   20.2   119   12.4 
2025-05-13 00:00 UT   11 15 57.0   +19 41 41     2.243    2.748  109.3   20.3   119   12.4 
2025-05-14 00:00 UT   11 16 13.1   +19 32 44     2.257    2.750  108.5   20.4   118   12.4 
2025-05-15 00:00 UT   11 16 30.5   +19 23 43     2.270    2.752  107.7   20.5   118   12.5 
2025-05-16 00:00 UT   11 16 49.0   +19 14 38     2.284    2.754  106.9   20.6   118   12.5 
2025-05-17 00:00 UT   11 17 08.8   +19 05 27     2.298    2.756  106.1   20.6   118   12.5 
2025-05-18 00:00 UT   11 17 29.7   +18 56 13     2.312    2.758  105.3   20.7   117   12.5 
2025-05-19 00:00 UT   11 17 51.9   +18 46 54     2.326    2.760  104.5   20.8   117   12.5 
2025-05-20 00:00 UT   11 18 15.2   +18 37 31     2.340    2.762  103.8   20.8   117   12.5 
2025-05-21 00:00 UT   11 18 39.6   +18 28 04     2.354    2.764  103.0   20.9   117   12.6 
2025-05-22 00:00 UT   11 19 05.1   +18 18 33     2.369    2.766  102.2   21.0   116   12.6 
2025-05-23 00:00 UT   11 19 31.8   +18 08 58     2.383    2.768  101.4   21.0   116   12.6 
2025-05-24 00:00 UT   11 19 59.5   +17 59 20     2.397    2.770  100.7   21.1   116   12.6 
2025-05-25 00:00 UT   11 20 28.3   +17 49 38     2.412    2.772   99.9   21.1   116   12.6 
2025-05-26 00:00 UT   11 20 58.2   +17 39 52     2.426    2.774   99.1   21.1   116   12.6 
2025-05-27 00:00 UT   11 21 29.2   +17 30 03     2.440    2.776   98.4   21.2   115   12.7 
2025-05-28 00:00 UT   11 22 01.1   +17 20 11     2.455    2.778   97.6   21.2   115   12.7 
2025-05-29 00:00 UT   11 22 34.1   +17 10 16     2.469    2.779   96.9   21.2   115   12.7 
2025-05-30 00:00 UT   11 23 08.0   +17 00 18     2.484    2.781   96.1   21.2   115   12.7 
2025-05-31 00:00 UT   11 23 43.0   +16 50 17     2.499    2.783   95.4   21.3   115   12.7 
2025-06-01 00:00 UT   11 24 18.8   +16 40 13     2.513    2.785   94.7   21.3   115   12.7 
2025-06-02 00:00 UT   11 24 55.6   +16 30 06     2.528    2.787   93.9   21.3   114   12.7 
2025-06-03 00:00 UT   11 25 33.4   +16 19 57     2.543    2.789   93.2   21.3   114   12.8 
2025-06-04 00:00 UT   11 26 12.0   +16 09 45     2.557    2.791   92.5   21.3   114   12.8 
2025-06-05 00:00 UT   11 26 51.5   +15 59 31     2.572    2.793   91.7   21.3   114   12.8 
2025-06-06 00:00 UT   11 27 31.9   +15 49 14     2.587    2.795   91.0   21.3   114   12.8 
2025-06-07 00:00 UT   11 28 13.1   +15 38 55     2.601    2.797   90.3   21.3   114   12.8 
2025-06-08 00:00 UT   11 28 55.2   +15 28 34     2.616    2.799   89.6   21.3   114   12.8 


    Terminology:
            
    delta:  distance between minor planet and earth in AU
    radius: distance between minor planet and sun in AU
    magn:   magnitude (brightness) estimate    
    ra:     right ascension in hours (24h = 360deg)
    dec:    declination in degrees
    elong:  elongation in degrees (angle sun-earth-minor planet)    
    phase:  phase angle in degrees (angle sun-minor planet-earth)        
    AU:     Astronomical Unit (mean distance between earth and sun: 149597870.7 km
    

Orbital elements provided by the MPC (Minor Planet Center).
Calculations by a modified version of AAPlus, a C# implementation of the AA+ project by PJ Naughter from the algorithms presented in the book "Astronomical Algorithms" by Jean Meeus.
NGC2000 dso catalog and star labels from VizieR as provided by the Strasbourg astronomical Data Center.
Tycho2 catalog from the ESO archive.